Regional Weather Roundup
Issued by NWS Jackson, KY

Home | Current Version | Previous Version | Text Only | Print | Product List | Glossary Off
Versions: 1 2 3 4 5 6 7 8 9 10 11 12 13 14 15 16 17 18 19 20 21 22 23 24 25 26 27 28 29

000
ASUS43 KJKL 281110
RWRJKL

EAST KENTUCKY HOURLY WEATHER ROUNDUP
NATIONAL WEATHER SERVICE JACKSON KY
700 AM EDT THU APR 28 2016

NOTE: "FAIR" INDICATES FEW OR NO CLOUDS BELOW 12,000 FEET WITH
NO SIGNIFICANT WEATHER AND/OR OBSTRUCTIONS TO VISIBILITY.

* THESE REPORTS ARE NOT UNDER NWS QUALITY CONTROL AND MAY NOT
  REPORT WEATHER SUCH AS PRECIPITATION AND FOG.

KYZ079-080-083-085-087-088-110-112-115-119-120-281200
...EASTERN KENTUCKY...

CITY           SKY/WX    TMP DP  RH WIND       PRES   REMARKS
JACKSON        HVY RAIN  59  57  93 S5        29.87S FOG
LONDON         CLOUDY    61  59  93 SE3       29.86R
SOMERSET*      CLOUDY    61  61 100 S3        29.86R
MONTICELLO*    LGT RAIN  64  62  93 VRB5      29.87R
WILLIAMSBURG*  CLOUDY    59  59 100 SE6       29.87R
MIDDLESBORO*   CLOUDY    61  61 100 CALM      29.90R
HARLAN APT*    CLOUDY    59  59 100 CALM      29.90R
HAZARD APT*    LGT RAIN  61  61 100 CALM      29.88S
BLACK MTN*       N/A     54  54 100 SE7         N/A
PIKE CO APT*   RAIN      58  58 100 S6        29.88R
BIG SANDY APT* RAIN      59  59  99 S5        29.87S
MOREHEAD APT*  LGT RAIN  59  59 100 SE10      29.83F
$$

KYZ035-036-041-042-044-050-067-078-099-281200
...CENTRAL KENTUCKY...

CITY           SKY/WX    TMP DP  RH WIND       PRES   REMARKS
MT STERLING*   LGT RAIN  59  59 100 SW7       29.85R
FLEMING/MASON* CLOUDY    59  58  99 SW6       29.84R
DANVILLE*      MOCLDY    57  57 100 S6        29.84S
RICHMOND*      CLOUDY    57  57 100 S7        29.83F
LEXINGTON      CLOUDY    60  58  92 S5        29.81F
FRANKFORT      CLOUDY    61  58  90 S6        29.80R
LOUISVILLE     MOCLDY    62  60  93 S7        29.79R
LEBANON*       PTSUNNY   59  59 100 SE8       29.82R
BOWLING GREEN  CLOUDY    67  65  93 SW5       29.82R
$$

KYZ091>093-OHZ055-061-077-WVZ005-015-034-035-042-281200
...SOUTHERN OHIO/WEST VIRGINIA...

CITY           SKY/WX    TMP DP  RH WIND       PRES   REMARKS
COVINGTON      CLOUDY    60  59  96 SE6       29.80R FOG
COLUMBUS       CLOUDY    49  43  80 NE3       29.83R
DAYTON         CLOUDY    50  47  89 E8        29.83S
WILMINGTON     CLOUDY    55  54  96 E5        29.81S FOG
HUNTINGTON     MOCLDY    61  59  93 S8        29.84R
CHARLESTON       N/A     62  58  86 S7        29.84R
PINEVILLE*     FOG       58  55  91 MISG      29.94R VSB 1/4
BECKLEY          N/A     57  55  93 S5        29.90R
$$

VAZ002-007-008-TNZ017-027-036-066-071-281200
...SOUTHWEST VIRGINIA/EAST TENNESSEE...

CITY           SKY/WX    TMP DP  RH WIND       PRES   REMARKS
WISE*          MOCLDY    59  57  94 S6        29.95R
BRISTOL        CLOUDY    61  60  97 CALM      29.91R
MORRISTOWN*    CLOUDY    63  63 100 CALM      29.90R
SEVIERVILLE*   CLOUDY    61  61 100 CALM      29.90R
KNOXVILLE      MOCLDY    64  62  93 NE3       29.88R FOG
OAK RIDGE      CLOUDY    65  63  93 CALM      29.90R
CROSSVILLE     CLOUDY    65  60  84 VRB5      29.90R
NASHVILLE      CLOUDY    66  63  90 S3        29.84R
$$

...KEY TO REMARKS...
VSB - VISIBILITY IN MILES
WCI - WIND CHILL INDEX
HX  - HEAT INDEX

$$




USA.gov is the U.S. government's official web portal to all federal, state and local government web resources and services.